[[{"header":{"parameterUnit":"m.s-1","parameterCategory":2,"la1":30.2992,"la2":30.254,"lo1":-89.0895,"lo2":-89.0443,"dy":0.0025,"dx":0.0025,"nx":19,"ny":19,"refTime":"2026-03-06T03:00:00:Z","depth":"0","parameterNumber":2,"parameterNumberName":"U-component_of_CURRENTS"},"data":[0,0,0,0.088,0.0881,0.0915,0.0915,0.0961,0.0962,0,0,0,0,0,0,0,0,0,0,0,0.0864,0.0864,0.088,0.0881,0.0915,0.0915,0.0961,0.0962,0,0,0,0,0,0,0,0,0,0,0,0.0864,0.0864,0.0864,0.0881,0.0915,0.0915,0.0961,0.0934,0,0,0,0,0,0,0,0,0,0,0.0901,0.0884,0.0864,0.0864,0.0881,0.0915,0.0915,0.0933,0.0936,0.0947,0,0.0951,0,0.096,0.0965,0.0965,0,0,0,0.0879,0.0882,0.0894,0.0864,0.0881,0.0915,0.0899,0.0935,0.0938,0.0951,0.0952,0.0954,0.0961,0.0965,0.0966,0.1034,0.1035,0,0,0.0878,0.0868,0.0892,0.0896,0.0889,0.0898,0.09,0.0937,0.0938,0.0952,0.0955,0.0962,0.0966,0.0966,0.1034,0.1035,0,0,0,0.0873,0.0867,0.0878,0.0894,0.0902,0.0899,0.0901,0.0936,0.0941,0.0955,0.0962,0.0966,0.0967,0.1034,0.1034,0.1051,0,0,0,0.0872,0.0865,0.0877,0.0872,0.0901,0.0919,0.09,0.0938,0.0943,0.0962,0.0966,0.0967,0.1033,0.1034,0.105,0.1031,0,0,0,0.0863,0.0864,0.0868,0.0871,0.0888,0.0918,0.0925,0.0939,0.0947,0.0965,0.0967,0.1033,0.1034,0.1049,0.103,0.1009,0,0,0,0.0852,0.0858,0.0867,0.088,0.0887,0.0921,0.0925,0.095,0.0967,0.0966,0.1033,0.1034,0.1048,0.1029,0.1008,0.0948,0.0944,0,0,0.0854,0.0858,0.0867,0.0877,0.0904,0.0916,0.096,0.0981,0.0985,0.102,0.1022,0.105,0.103,0.1009,0.1001,0.0995,0,0,0,0.0865,0.0868,0.0879,0.0897,0.0924,0.0954,0.0983,0.1005,0.1039,0.1,0.1064,0.105,0.1036,0.1001,0.0996,0.1021,0.1038,0.1038,0.1038,0.0844,0.0866,0.0883,0.0914,0.0941,0.099,0.1017,0.1052,0.1063,0.1086,0.1076,0.1084,0.1049,0.1045,0.1072,0.1103,0.1103,0.1103,0.1104,0.0845,0.0851,0.0888,0.0911,0.0951,0.0989,0.1055,0.1074,0.1103,0.1114,0.11,0.1035,0.1041,0.1072,0.1105,0.1105,0.1104,0.1104,0.1104,0.0826,0.083,0.085,0.0887,0.0926,0.0981,0.1013,0.1063,0.1091,0.1094,0.1029,0.1028,0.1041,0.1081,0.1081,0.1081,0.1081,0.1081,0.108,0.0787,0.081,0.082,0.0859,0.0877,0.0914,0.098,0.0994,0.1006,0.1022,0.1022,0.1048,0.1076,0.1061,0.1078,0.1079,0.1079,0.1079,0.1079,0.0753,0.0761,0.0776,0.0791,0.0826,0.0813,0.0885,0.0885,0.0907,0.0888,0.0971,0.0983,0.0959,0.0962,0.0944,0.0929,0.0929,0.0929,0.0929,0.0719,0.0728,0.0736,0.0746,0.0754,0.0767,0.0721,0.0759,0.084,0.0885,0.0927,0.094,0.0945,0.0922,0.0926,0.0908,0.0885,0.0885,0.0885,0.0697,0.0706,0.0697,0.0712,0.0717,0.0689,0.0618,0.0646,0.0803,0.089,0.0976,0.0977,0.1007,0.1013,0.0985,0.0988,0.0961,0,0]},{"header":{"parameterUnit":"m.s-1","parameterCategory":2,"la1":30.2992,"la2":30.254,"lo1":-89.0895,"lo2":-89.0443,"dy":0.0025,"dx":0.0025,"nx":19,"ny":19,"refTime":"2026-03-06T03:00:00:Z","depth":"0","parameterNumber":3,"parameterNumberName":"V-component_of_CURRENTS"},"data":[0,0,0,-0.0098,-0.0097,-0.0088,-0.0088,-0.0083,-0.0083,0,0,0,0,0,0,0,0,0,0,0,-0.0098,-0.0098,-0.0098,-0.0097,-0.0088,-0.0088,-0.0083,-0.0083,0,0,0,0,0,0,0,0,0,0,0,-0.0098,-0.0098,-0.0098,-0.0097,-0.0088,-0.0088,-0.0083,-0.0087,0,0,0,0,0,0,0,0,0,0,-0.0095,-0.0096,-0.0098,-0.0098,-0.0097,-0.0088,-0.0088,-0.0087,-0.0087,-0.0091,0,-0.0091,0,-0.0091,-0.0083,-0.0083,0,0,0,-0.0092,-0.0097,-0.0095,-0.0098,-0.0097,-0.0088,-0.0091,-0.0087,-0.0087,-0.0091,-0.0091,-0.009,-0.009,-0.0083,-0.0083,-0.0068,-0.0068,0,0,-0.0093,-0.0095,-0.0096,-0.0095,-0.0097,-0.0091,-0.009,-0.0086,-0.0086,-0.0091,-0.009,-0.009,-0.0083,-0.0083,-0.0068,-0.0068,0,0,0,-0.0098,-0.0095,-0.0094,-0.0095,-0.0095,-0.0091,-0.009,-0.0086,-0.0086,-0.009,-0.009,-0.0083,-0.0083,-0.0068,-0.0068,-0.0025,0,0,0,-0.0098,-0.0098,-0.0094,-0.0095,-0.0095,-0.009,-0.009,-0.0086,-0.0086,-0.009,-0.0083,-0.0083,-0.0069,-0.0068,-0.0027,0.0005,0,0,0,-0.0098,-0.0098,-0.0098,-0.0095,-0.0093,-0.009,-0.0089,-0.0086,-0.0087,-0.0083,-0.0083,-0.0069,-0.0068,-0.0028,0.0002,0.0059,0,0,0,-0.0099,-0.0093,-0.0098,-0.0089,-0.0094,-0.0079,-0.0089,-0.0081,-0.0076,-0.0083,-0.0069,-0.0068,-0.0029,-0.0,0.0056,0.0097,0.0112,0,0,-0.0091,-0.0093,-0.0086,-0.009,-0.0071,-0.008,-0.0055,-0.0057,-0.007,-0.007,-0.007,-0.0026,0.0002,0.0058,0.0125,0.0139,0,0,0,-0.0082,-0.0076,-0.0072,-0.0062,-0.0057,-0.0033,-0.0043,-0.0041,-0.0032,-0.0067,-0.0029,-0.0012,0.0022,0.0041,0.0052,-0.0007,-0.0066,-0.0066,-0.0066,-0.0065,-0.006,-0.0041,-0.003,-0.0017,-0.0004,0.0016,0.0017,-0.0011,0.0001,0.0021,0.0091,0.011,0.0119,0.0057,0.0011,0.0011,0.0011,0.0011,-0.0038,-0.002,-0.0009,0.001,0.0033,0.0053,0.0075,0.0069,0.0105,0.0061,0.0092,0.0082,0.0134,0.0063,0.0014,0.0014,0.0013,0.0013,0.0013,-0.0015,-0.0004,0.0005,0.004,0.008,0.0097,0.0158,0.0157,0.0154,0.0185,0.0215,0.0214,0.0156,0.0203,0.0203,0.0204,0.0204,0.0204,0.0204,0.0008,0.0019,0.0044,0.0076,0.0108,0.0158,0.021,0.0247,0.0286,0.0279,0.028,0.0175,0.015,0.0148,0.0211,0.0209,0.0209,0.0208,0.0208,0.0043,0.0042,0.0083,0.0112,0.0184,0.0253,0.0295,0.0383,0.0421,0.0452,0.0318,0.0334,0.0332,0.0322,0.0324,0.0429,0.0429,0.0429,0.0429,0.0067,0.0068,0.0122,0.0173,0.0247,0.0301,0.0412,0.0468,0.045,0.0416,0.0374,0.0316,0.031,0.0301,0.0292,0.0291,0.0385,0.0385,0.0385,0.0094,0.0104,0.0147,0.0188,0.0272,0.0357,0.0445,0.0496,0.0446,0.0374,0.0285,0.0287,0.0187,0.0182,0.0154,0.0146,0.0138,0,0]}],[{"header":{"parameterUnit":"m.s-1","parameterCategory":2,"la1":30.2992,"la2":30.254,"lo1":-89.0895,"lo2":-89.0443,"dy":0.0025,"dx":0.0025,"nx":19,"ny":19,"refTime":"2026-03-06T03:00:00:Z","depth":"2","parameterNumber":2,"parameterNumberName":"U-component_of_CURRENTS"},"data":[0,0,0,0.1044,0.1045,0.108,0.108,0.113,0.113,0,0,0,0,0,0,0,0,0,0,0,0.1026,0.1026,0.1044,0.1045,0.108,0.108,0.1129,0.113,0,0,0,0,0,0,0,0,0,0,0,0.1026,0.1026,0.1026,0.1045,0.108,0.108,0.1129,0.1101,0,0,0,0,0,0,0,0,0,0,0.1067,0.1049,0.1026,0.1026,0.1045,0.108,0.108,0.11,0.1103,0.1116,0,0.1119,0,0.113,0.1134,0.1134,0,0,0,0.1042,0.1046,0.1058,0.1026,0.1046,0.1079,0.1063,0.1101,0.1105,0.1121,0.112,0.1122,0.1131,0.1134,0.1134,0.1205,0.1206,0,0,0.104,0.1031,0.1056,0.106,0.1052,0.1062,0.1064,0.1104,0.1105,0.112,0.1124,0.1132,0.1134,0.1135,0.1205,0.1206,0,0,0,0.1037,0.1029,0.104,0.1058,0.1067,0.1063,0.1066,0.1103,0.1107,0.1124,0.1133,0.1135,0.1135,0.1205,0.1205,0.1216,0,0,0,0.1035,0.1028,0.1039,0.1034,0.1066,0.1085,0.1064,0.1104,0.1109,0.1132,0.1135,0.1136,0.1204,0.1205,0.1215,0.1197,0,0,0,0.1025,0.1027,0.103,0.1033,0.1051,0.1084,0.1091,0.1105,0.1115,0.1134,0.1136,0.1204,0.1205,0.1214,0.1196,0.1185,0,0,0,0.1014,0.102,0.103,0.1043,0.105,0.1084,0.1091,0.1117,0.1134,0.1135,0.1204,0.1205,0.1214,0.1195,0.1185,0.1159,0.1158,0,0,0.1017,0.102,0.1029,0.1039,0.1066,0.1079,0.1122,0.1145,0.1153,0.119,0.1192,0.1216,0.1196,0.1185,0.1209,0.1206,0,0,0,0.1028,0.103,0.1042,0.1059,0.1086,0.1114,0.1145,0.1169,0.1204,0.1168,0.123,0.1217,0.121,0.1195,0.1193,0.1209,0.1209,0.1209,0.1209,0.1006,0.1028,0.1044,0.1074,0.1098,0.1147,0.1174,0.1211,0.1226,0.1248,0.1238,0.1251,0.1237,0.1235,0.1264,0.1264,0.1264,0.1264,0.1264,0.1007,0.1011,0.1045,0.1065,0.1102,0.1137,0.1206,0.1227,0.1263,0.1273,0.1266,0.1222,0.1233,0.1266,0.1265,0.1265,0.1265,0.1265,0.1265,0.0985,0.0989,0.1006,0.1037,0.1071,0.1125,0.1161,0.1213,0.1249,0.1254,0.1224,0.1223,0.1231,0.1249,0.1249,0.1249,0.1249,0.1249,0.1248,0.0945,0.0967,0.0971,0.1006,0.1021,0.1057,0.1129,0.1154,0.119,0.1217,0.1217,0.1245,0.1245,0.123,0.1247,0.1247,0.1247,0.1247,0.1248,0.091,0.0915,0.0924,0.0934,0.0966,0.0968,0.1046,0.1086,0.1119,0.1122,0.1199,0.12,0.1185,0.1186,0.117,0.117,0.117,0.117,0.117,0.0874,0.0881,0.0881,0.0888,0.0899,0.0927,0.0918,0.0966,0.1046,0.1081,0.1084,0.109,0.1095,0.1075,0.1079,0.106,0.1031,0.1031,0.1031,0.0849,0.0856,0.0843,0.0853,0.0864,0.0863,0.0836,0.083,0.0907,0.1024,0.1043,0.1164,0.1184,0.1187,0.1166,0.1169,0.1143,0,0]},{"header":{"parameterUnit":"m.s-1","parameterCategory":2,"la1":30.2992,"la2":30.254,"lo1":-89.0895,"lo2":-89.0443,"dy":0.0025,"dx":0.0025,"nx":19,"ny":19,"refTime":"2026-03-06T03:00:00:Z","depth":"2","parameterNumber":3,"parameterNumberName":"V-component_of_CURRENTS"},"data":[0,0,0,-0.0214,-0.0214,-0.0203,-0.0202,-0.0185,-0.0185,0,0,0,0,0,0,0,0,0,0,0,-0.0214,-0.0214,-0.0214,-0.0214,-0.0203,-0.0202,-0.0185,-0.0185,0,0,0,0,0,0,0,0,0,0,0,-0.0214,-0.0214,-0.0214,-0.0214,-0.0203,-0.0202,-0.0185,-0.0193,0,0,0,0,0,0,0,0,0,0,-0.0204,-0.0206,-0.0214,-0.0214,-0.0214,-0.0203,-0.0202,-0.0194,-0.0193,-0.0192,0,-0.0191,0,-0.0193,-0.0185,-0.0185,0,0,0,-0.0208,-0.0207,-0.0206,-0.0214,-0.0214,-0.0203,-0.0206,-0.0193,-0.0192,-0.0191,-0.0191,-0.019,-0.0192,-0.0185,-0.0185,-0.0148,-0.0147,0,0,-0.0209,-0.0209,-0.0207,-0.0205,-0.0212,-0.0206,-0.0206,-0.0192,-0.0191,-0.0191,-0.019,-0.0192,-0.0185,-0.0185,-0.0148,-0.0148,0,0,0,-0.0215,-0.021,-0.0209,-0.0206,-0.0207,-0.0206,-0.0205,-0.0191,-0.0192,-0.019,-0.0192,-0.0185,-0.0184,-0.0148,-0.0148,-0.0106,0,0,0,-0.0215,-0.0214,-0.0209,-0.0209,-0.0207,-0.02,-0.0204,-0.0192,-0.0191,-0.0192,-0.0185,-0.0184,-0.0149,-0.0148,-0.0108,-0.0078,0,0,0,-0.0214,-0.0214,-0.0213,-0.0209,-0.0208,-0.02,-0.0199,-0.0192,-0.0193,-0.0185,-0.0184,-0.0149,-0.0148,-0.0109,-0.0082,-0.0046,0,0,0,-0.0214,-0.0204,-0.0213,-0.0199,-0.0208,-0.0187,-0.0199,-0.0185,-0.0176,-0.0185,-0.0149,-0.0148,-0.011,-0.0084,-0.0048,-0.0052,-0.0042,0,0,-0.02,-0.0203,-0.0193,-0.0201,-0.0174,-0.0188,-0.0153,-0.0151,-0.0163,-0.0153,-0.0152,-0.0107,-0.0082,-0.0046,-0.0006,0.0003,0,0,0,-0.0187,-0.0179,-0.0173,-0.016,-0.0152,-0.0126,-0.0133,-0.0129,-0.0114,-0.0156,-0.0102,-0.0088,-0.0066,-0.0074,-0.0067,-0.0144,-0.0144,-0.0144,-0.0144,-0.0161,-0.0155,-0.013,-0.0118,-0.01,-0.0084,-0.0062,-0.0057,-0.0084,-0.0069,-0.005,0.0011,0.0003,0.0009,-0.0053,-0.0053,-0.0053,-0.0053,-0.0053,-0.0127,-0.0107,-0.0093,-0.0068,-0.0043,-0.0015,0.001,0.0003,0.0035,-0.0002,0.0015,-0.0026,0.0019,-0.0049,-0.005,-0.005,-0.0051,-0.0051,-0.0051,-0.0102,-0.009,-0.0078,-0.0036,0.0011,0.0032,0.0089,0.009,0.0081,0.0105,0.0089,0.0087,0.0042,0.0108,0.0108,0.0109,0.0109,0.0109,0.0109,-0.0079,-0.0065,-0.0036,0.0002,0.0038,0.0088,0.0134,0.0159,0.0165,0.0147,0.0146,0.0066,0.006,0.0052,0.0114,0.0113,0.0112,0.0112,0.0112,-0.0041,-0.0043,0.0002,0.0034,0.011,0.0166,0.0201,0.0239,0.0255,0.026,0.017,0.0167,0.0156,0.0149,0.0143,0.0225,0.0225,0.0225,0.0225,-0.0017,-0.0016,0.0042,0.0095,0.0163,0.0207,0.0267,0.0263,0.0242,0.0199,0.02,0.0152,0.0148,0.0133,0.0127,0.0118,0.0194,0.0194,0.0194,0.0012,0.0023,0.0067,0.0109,0.0186,0.0245,0.0279,0.0254,0.0192,0.0191,0.0175,0.0227,0.0156,0.015,0.0124,0.0115,0.01,0,0]}],[{"header":{"parameterUnit":"m.s-1","parameterCategory":2,"la1":30.2992,"la2":30.254,"lo1":-89.0895,"lo2":-89.0443,"dy":0.0025,"dx":0.0025,"nx":19,"ny":19,"refTime":"2026-03-06T03:00:00:Z","depth":"4","parameterNumber":2,"parameterNumberName":"U-component_of_CURRENTS"},"data":[0,0,0,0.0654,0.0655,0.0725,0.0726,0.0826,0.0827,0,0,0,0,0,0,0,0,0,0,0,0.0633,0.0633,0.0654,0.0655,0.0725,0.0726,0.0826,0.0827,0,0,0,0,0,0,0,0,0,0,0,0.0633,0.0633,0.0634,0.0655,0.0725,0.0726,0.0826,0.0772,0,0,0,0,0,0,0,0,0,0,0.0703,0.0684,0.0633,0.0634,0.0656,0.0725,0.0726,0.077,0.0776,0.0795,0,0.0805,0,0.0814,0.0833,0.0834,0,0,0,0.0663,0.0679,0.0692,0.0634,0.0656,0.0725,0.0696,0.0773,0.078,0.0803,0.0806,0.081,0.0815,0.0834,0.0834,0.0967,0.0968,0,0,0.0659,0.0654,0.0687,0.0696,0.0673,0.0694,0.0698,0.0777,0.0787,0.0806,0.0812,0.0817,0.0835,0.0835,0.0966,0.0967,0,0,0,0.0643,0.0651,0.0662,0.0692,0.0702,0.0695,0.07,0.0784,0.0786,0.0813,0.0818,0.0835,0.0836,0.0965,0.0967,0.0975,0,0,0,0.0641,0.0641,0.066,0.0659,0.07,0.0743,0.0706,0.0781,0.079,0.0818,0.0835,0.0837,0.0965,0.0966,0.0973,0.0955,0,0,0,0.063,0.064,0.0646,0.0658,0.0684,0.0742,0.0749,0.0783,0.0793,0.0834,0.0837,0.0964,0.0966,0.0971,0.0953,0.0952,0,0,0,0.0625,0.0634,0.0646,0.066,0.0683,0.0719,0.0749,0.0797,0.0834,0.0836,0.0965,0.0966,0.0971,0.0952,0.0951,0.0833,0,0,0,0.063,0.0635,0.0642,0.0653,0.0676,0.071,0.077,0.0836,0.087,0.0939,0.0942,0.0974,0.0953,0.0951,0.0942,0,0,0,0,0.0638,0.0642,0.0652,0.067,0.0699,0.0753,0.0813,0.0849,0.0938,0.0898,0.1008,0.0995,0.0993,0.0925,0.0975,0.0975,0.0975,0.0975,0.0974,0.0631,0.0642,0.0659,0.0685,0.0724,0.0797,0.0846,0.0917,0.0954,0.1006,0.1028,0.1067,0.1,0.107,0.1071,0.1071,0.1071,0.1071,0.1071,0.0616,0.0621,0.0664,0.0697,0.0761,0.0832,0.0908,0.0951,0.1032,0.1057,0.1056,0.0972,0.1073,0.1072,0.1072,0.1072,0.1072,0.1072,0.1071,0.0597,0.0603,0.0638,0.0693,0.0784,0.0873,0.092,0.0986,0.1033,0.1055,0.0997,0.1068,0.1035,0.1076,0.1076,0.1076,0.1076,0.1076,0.1076,0.056,0.0586,0.0612,0.0691,0.0758,0.084,0.0931,0.0951,0.101,0.0985,0.107,0.1068,0.1068,0.1037,0.1075,0.1075,0.1075,0.1075,0.1075,0.0521,0.0527,0.0564,0.0614,0.0725,0.0768,0.0856,0.0882,0.0894,0.0887,0.0939,0.0946,0.0923,0.0926,0.0888,0.0884,0.0882,0.0881,0,0.0481,0.0484,0.0511,0.056,0.0621,0.0712,0.0702,0.0752,0.0808,0.0785,0.0896,0.0955,0.0959,0.0933,0.0934,0.0889,0,0,0,0.0437,0.0458,0.0465,0.0513,0.0578,0.0627,0.07,0.0695,0.0798,0.0785,0.0846,0.0855,0.0987,0.1072,0.1053,0.1053,0.1001,0,0]},{"header":{"parameterUnit":"m.s-1","parameterCategory":2,"la1":30.2992,"la2":30.254,"lo1":-89.0895,"lo2":-89.0443,"dy":0.0025,"dx":0.0025,"nx":19,"ny":19,"refTime":"2026-03-06T03:00:00:Z","depth":"4","parameterNumber":3,"parameterNumberName":"V-component_of_CURRENTS"},"data":[0,0,0,-0.0103,-0.0103,-0.0091,-0.0091,-0.0041,-0.0041,0,0,0,0,0,0,0,0,0,0,0,-0.0103,-0.0103,-0.0103,-0.0103,-0.0092,-0.0091,-0.0041,-0.0041,0,0,0,0,0,0,0,0,0,0,0,-0.0103,-0.0103,-0.0103,-0.0103,-0.0092,-0.0091,-0.0041,-0.0057,0,0,0,0,0,0,0,0,0,0,-0.0072,-0.0081,-0.0103,-0.0103,-0.0103,-0.0092,-0.0091,-0.0058,-0.0056,-0.0038,0,-0.0038,0,-0.0042,-0.0037,-0.0037,0,0,0,-0.0097,-0.0083,-0.008,-0.0103,-0.0103,-0.0092,-0.0095,-0.0057,-0.0055,-0.0035,-0.0037,-0.0036,-0.0041,-0.0037,-0.0036,0.0036,0.0037,0,0,-0.0097,-0.0099,-0.0082,-0.0078,-0.0101,-0.0095,-0.0095,-0.0056,-0.0053,-0.0037,-0.0035,-0.004,-0.0036,-0.0036,0.0036,0.0036,0,0,0,-0.0103,-0.0099,-0.0098,-0.008,-0.0083,-0.0095,-0.0094,-0.0055,-0.0055,-0.0035,-0.0039,-0.0036,-0.0035,0.0035,0.0036,0.0069,0,0,0,-0.0103,-0.0103,-0.0098,-0.0099,-0.0084,-0.0075,-0.0094,-0.0057,-0.0053,-0.004,-0.0036,-0.0035,0.0035,0.0036,0.0067,0.0069,0,0,0,-0.0103,-0.0103,-0.0103,-0.0099,-0.0097,-0.0075,-0.0073,-0.0057,-0.0056,-0.0037,-0.0035,0.0035,0.0036,0.0065,0.0067,0.0046,0,0,0,-0.0104,-0.0082,-0.0103,-0.0071,-0.0097,-0.0041,-0.0073,-0.0041,-0.002,-0.0036,0.0035,0.0036,0.0065,0.0066,0.0045,0.0027,0,0,0,-0.0071,-0.0078,-0.0055,-0.0073,-0.0014,-0.0043,0.0018,0.0016,-0.0002,0.0025,0.0026,0.0068,0.0067,0.0046,0.0082,0,0,0,0,-0.004,-0.0026,-0.001,0.0015,0.0041,0.0055,0.006,0.0059,0.0062,0.0012,0.0077,0.0076,0.0061,0.0049,0.0041,0.004,0.004,0.004,0.004,0.0001,0.002,0.0065,0.009,0.012,0.0133,0.0138,0.0132,0.0122,0.0121,0.011,0.0127,0.012,0.0125,0.0126,0.0126,0.0126,0.0126,0.0126,0.0061,0.0083,0.0109,0.0151,0.0166,0.0201,0.0212,0.0189,0.0175,0.0165,0.0148,0.0096,0.013,0.0129,0.0128,0.0128,0.0128,0.0127,0.0127,0.0078,0.0091,0.0113,0.0168,0.0198,0.0214,0.0219,0.0212,0.0189,0.0178,0.0128,0.0135,0.012,0.0156,0.0155,0.0155,0.0155,0.0155,0.0155,0.0077,0.0107,0.0134,0.018,0.0196,0.0212,0.0215,0.0195,0.0174,0.0153,0.0168,0.0136,0.0135,0.0121,0.0154,0.0155,0.0155,0.0155,0.0155,0.0099,0.01,0.0145,0.0165,0.0204,0.0213,0.0221,0.0176,0.0146,0.0113,0.0132,0.0134,0.0108,0.0107,0.0091,0.0117,0.0116,0.0116,0,0.0102,0.011,0.0155,0.0182,0.0201,0.0217,0.0186,0.016,0.0125,0.0129,0.0134,0.0159,0.0159,0.0132,0.0131,0.0114,0,0,0,0.0124,0.0131,0.0154,0.0175,0.0196,0.0181,0.0176,0.0155,0.0146,0.0101,0.0113,0.0114,0.0135,0.0152,0.0114,0.0113,0.0088,0,0]}]]